Regional Weather Roundup
Issued by NWS

Home | Current Version | Previous Version | Graphics & Text | Print | Product List | Glossary On
Versions: 1 2 3 4 5 6 7 8 9 10 11 12 13 14 15 16 17 18 19 20 21 22 23 24 25 26 27 28 29 30 31 32 33 34 35 36 37 38 39 40 41 42 43 44 45 46 47 48 49 50
000
ASUS43 KFSD 191610
RWRSD

WEATHER ROUNDUP FOR SOUTH DAKOTA
NATIONAL WEATHER SERVICE SIOUX FALLS SD
1000 AM CST SUN FEB 19 2017

NOTE: "FAIR" INDICATES FEW OR NO CLOUDS BELOW 12,000 FEET WITH NO
SIGNIFICANT WEATHER AND/OR OBSTRUCTIONS TO VISIBILITY.


SDZ001>005-009-010-012>017-191700-
NORTHWEST AND NORTH CENTRAL SOUTH DAKOTA

CITY           SKY/WX    TMP DP  RH WIND       PRES   REMARKS
BUFFALO          N/A     44  34  67 S9        29.43F
FAITH            N/A     45  36  70 S18       29.50F
MOBRIDGE       SUNNY     41  33  73 SE8       29.54F
$$

SDZ012>016-024>037-041>051-057-063-072>074-191700-
SOUTHWEST AND SOUTH CENTRAL SOUTH DAKOTA

CITY           SKY/WX    TMP DP  RH WIND       PRES   REMARKS
RAPID CTY ARPT SUNNY     43  31  62 SE5       29.55S
PIERRE         CLOUDY    47  36  65 SE10      29.58F
CUSTER         CLOUDY    50  26  39 W12       29.60F
ELLSWORTH AFB  CLOUDY    51  32  48 S6        29.53F
PHILIP         SUNNY     51  37  58 SE6       29.56R
PINE RIDGE     SUNNY     47  35  63 SW7       29.60F
SPEARFISH      FAIR      55  30  38 SW8G17    29.52F
WINNER         FAIR      58  39  49 S15G24    29.61F
$$

SDZ004>011-016>023-039-040-191700-
NORTHEAST SOUTH DAKOTA

CITY           SKY/WX    TMP DP  RH WIND       PRES   REMARKS
ABERDEEN       CLOUDY    45  36  70 SE18G28   29.67F
WATERTOWN      CLOUDY    43  37  79 S8        29.74R
BROOKINGS      CLOUDY    46  38  73 SE14      29.75F
SISSETON         N/A     37  37 100 S8        29.75S
$$

SDZ017-020-022-023-036>040-048>070-191700-
SOUTHEAST SOUTH DAKOTA

CITY           SKY/WX    TMP DP  RH WIND       PRES   REMARKS
SIOUX FALLS    CLOUDY    49  40  71 S13G18    29.79S
HURON          CLOUDY    46  38  73 SE16      29.69F
CHAMBERLAIN    CLOUDY    49  41  72 SE14      29.63F
MITCHELL       CLOUDY    46  39  76 SE13      29.72S
YANKTON        CLOUDY    46  39  76 E7        29.76F
$$

ABBREVIATIONS USED IN REMARKS
   TC - TEMPERATURE IN CELSIUS
  WCI - WIND CHILL INDEX
   HX - HEAT INDEX
  VSB - VISIBILITY





USA.gov is the U.S. government's official web portal to all federal, state and local government web resources and services.